Date,TemperatureHighF,TemperatureAvgF,TemperatureLowF,DewpointHighF,DewpointAvgF,DewpointLowF,HumidityHigh,HumidityAvg,HumidityLow,PressureMaxIn,PressureMinIn,WindSpeedMaxMPH,WindSpeedAvgMPH,GustSpeedMaxMPH,PrecipitationSumIn
2013-2-1,26,12,-3,20,5,-8,81,74,67,30.52,30.12,15,7,31,0.00
2013-2-2,38,28,21,32,23,16,86,80,74,30.25,30.09,13,5,25,0.01
2013-2-3,41,32,20,30,23,14,82,71,58,30.24,29.80,13,8,23,0.01
2013-2-4,39,26,21,31,21,17,92,84,71,30.05,29.78,11,5,24,0.00
2013-2-5,47,36,24,33,28,22,92,72,46,30.09,29.84,17,7,28,0.00
2013-2-6,48,40,31,37,32,26,84,74,60,30.08,29.84,17,6,27,0.00
2013-2-7,40,32,28,36,28,23,93,85,80,30.27,29.89,11,6,22,0.00
2013-2-8,32,27,24,26,24,22,91,87,77,30.38,30.17,14,5,19,0.00
2013-2-9,47,36,27,37,31,24,93,83,67,30.19,29.69,16,11,30,0.00
2013-2-10,45,36,29,42,32,23,96,86,75,29.78,29.24,27,14,46,0.06
2013-2-11,31,28,23,25,22,19,86,78,71,30.19,29.77,21,9,38,0.01
2013-2-12,48,32,21,27,22,17,90,68,33,30.19,29.92,13,6,22,0.00
2013-2-13,52,38,25,32,26,21,87,65,39,29.93,29.72,14,6,25,0.00
2013-2-14,41,35,22,31,27,14,93,74,51,30.29,29.78,19,8,29,0.00
2013-2-15,29,21,13,22,16,9,92,78,55,30.41,30.29,10,4,19,0.00
2013-2-16,32,22,9,25,17,6,90,82,71,30.40,30.06,10,4,18,0.00
2013-2-17,52,37,24,34,27,20,85,69,51,30.06,29.55,15,8,25,0.01
2013-2-18,46,31,19,34,24,12,94,75,62,30.08,29.54,23,11,38,0.01
2013-2-19,23,14,7,11,3,-2,77,62,35,30.47,30.09,19,10,35,0.00
2013-2-20,23,13,2,8,2,-4,80,63,46,30.48,30.29,11,6,22,0.00
2013-2-21,24,20,19,19,14,7,93,76,56,30.33,29.90,17,9,28,0.00
2013-2-22,22,18,12,17,15,8,92,87,79,30.08,29.90,12,6,21,0.01
2013-2-23,36,22,8,27,16,5,90,82,65,30.06,29.88,11,5,18,0.01
2013-2-24,39,29,23,28,24,20,89,81,63,30.11,29.93,7,3,16,0.01
2013-2-25,31,26,23,28,24,22,95,91,84,30.13,29.97,7,4,13,0.00
2013-2-26,31,27,23,28,25,22,95,92,87,29.99,29.83,10,6,21,0.00
2013-2-27,36,28,22,26,23,18,91,81,65,30.14,29.93,17,11,29,0.00
2013-2-28,29,26,24,24,22,19,87,84,78,30.27,30.14,12,8,24,0.00